Regional Weather Roundup
Issued by NWS Austin/San Antonio, TX

Home | Current Version | Previous Version | Text Only | Print | Product List | Glossary On
Versions: 1 2 3 4 5 6 7 8 9 10 11 12 13 14 15 16 17 18 19 20 21 22 23 24 25 26 27 28 29 30 31 32 33 34 35 36 37 38 39 40 41 42 43 44 45 46 47 48 49 50
000
ASUS44 KEWX 291501
RWREWX
SOUTH TEXAS REGIONAL WEATHER ROUNDUP
NATIONAL WEATHER SERVICE AUSTIN/SAN ANTONIO TX
1000 AM CDT THU JUN 29 2017

NOTE: "FAIR" INDICATED FEW OR NO CLOUDS BELOW 12,000 FEET WITH NO
SIGNIFICANT WEATHER AND/OR OBSTRUCTIONS TO VISIBILITY.

* - THESE STATIONS ARE NOT NWS OR FAA STATIONS...AND ARE NOT SUBJECT
    TO NWS AND FAA QUALITY CONTROL.

TXZ171-172-183>190-291600-
TEXAS HILL COUNTRY AND EDWARDS PLATEAU

CITY           SKY/WX    TMP DP  RH WIND       PRES   REMARKS
JUNCTION       SUNNY     84  70  62 S14G22    29.90S
*LLANO         SUNNY     84  72  65 S10       29.93S
BURNET         MOSUNNY   82  70  66 S8        29.94R
*HORSESHOE BAY MOSUNNY   85  72  66 MISG      29.91F HX  90
*KERRVILLE     SUNNY     82  74  77 S12G17    29.93S
*FREDERICKSBRG PTSUNNY   82  68  63 S10G18    29.93S
*ROCKSPRINGS   SUNNY     82  79  89 S14       29.96S HX  93
*BOERNE STAGE  MOSUNNY   79  70  73 S7        29.94S
*CASTROVILLE   CLOUDY    81  74  79 E8        29.92S
HONDO          MOSUNNY   84  74  71 SE8       29.90S HX  91
*UVALDE        SUNNY     82  74  75 SE6       29.90R
DEL RIO        MOSUNNY   82  73  74 SE10      29.86R
LAUGHLIN AFB   MOSUNNY   84  74  72 S10       29.87R HX  90
CARRIZO SPRGS  SUNNY     84  72  65 S10       29.86R
*EAGLE PASS    SUNNY     86  73  66 SE8       29.86S HX  93
$$

TXZ173-191>194-202-209-217>225-228-291600-
CENTRAL AND SOUTH CENTRAL TEXAS

CITY           SKY/WX    TMP DP  RH WIND       PRES   REMARKS
GEORGETOWN     MOSUNNY   82  70  65 S9        29.91R
AUSTIN/BERGSTM PTSUNNY   81  75  82 S8        29.90S
AUSTIN/MABRY   MOSUNNY   84  73  69 VRB3      29.91S HX  90
*AUSTIN/EXEC     N/A     81  73  78 CALM      29.92R
*LAGO VISTA    PTSUNNY   83  73  72 S7        29.93S
SAN MARCOS     CLOUDY    77  75  94 SE8       29.93R FOG
NEW BRAUNFELS  CLOUDY    77  74  90 S9        29.91R
RANDOLPH AFB   CLOUDY    76  76 100 S6        29.91S
PT SAN ANTONIO PTSUNNY   80  74  84 SE7       29.89R
SAN ANTONIO    CLOUDY    80  73  79 SE9       29.92R
STINSON FIELD  CLOUDY    81  74  79 SE7       29.89R
*LA GRANGE     CLOUDY    82  77  87 S3        29.89S
*GIDDINGS      CLOUDY    80  73  77 S7        29.92S
*GONZALES      CLOUDY    82  79  90 SW6       29.90S HX  91
$$

TXZ163>164-176>182-195>201-210>213-226-227-235-291600-
SOUTHEAST TEXAS

CITY           SKY/WX    TMP DP  RH WIND       PRES   REMARKS
COLLEGE STN    PTSUNNY   82  74  76 S7        29.90S
*BRYAN         PTSUNNY   80  74  81 S6        29.92S
*CALDWELL      NOT AVBL
*CROCKETT      CLOUDY    75  73  94 CALM      29.95F
*BRENHAM       MOSUNNY   83  77  82 SE6       29.92R HX  92
HUNTSVILLE     PTSUNNY   80  72  76 S7        29.92S
CONROE         CLOUDY    80  75  84 CALM      29.92S
HOUSTON BUSH   PTSUNNY   84  76  76 VRB3      29.91R HX  93
HOUSTON HOBBY  LGT RAIN  83  75  77 SW7       29.90S HX  90
*HOUSTON SW AP MOSUNNY   80  75  84 SW6       29.92F
PEARLAND       MOSUNNY   82  75  79 SW6       29.92S
HOUSTON HOOKS  PTSUNNY   84  76  76 CALM      29.91R HX  93
ELLINGTON FLD  NOT AVBL
SUGAR LAND     CLOUDY    82  77  84 VRB3      29.91R HX  90
*HOUSTON EXEC  PTSUNNY   81  77  89 S8        29.93R
*CLEVELAND MUN PTSUNNY   83  77  82 S7        29.92S HX  91
*WHARTON       PTSUNNY   82  75  79 S7        29.92R
*COLUMBUS      CLOUDY    82  76  80 SW3       29.92R
*EAGLE LAKE    PTSUNNY   84  79  85 SW5       29.91S HX  95
$$

TXZ214>216-236>238-291600-
THE UPPER TEXAS COAST

CITY           SKY/WX    TMP DP  RH WIND       PRES   REMARKS
*ORANGE        RAIN      77  76  98 S3        29.94F
PORT ARTHUR    PTSUNNY   77  75  93 S3        29.93R THUNDER
GALVESTON      PTSUNNY   84  79  85 SW9       29.92S HX  96
ANGLETON       LGT RAIN  79  76  90 W6        29.93R
*BAY CITY      CLOUDY    79  77  92 CALM      29.92R
PALACIOS       CLOUDY    79  76  90 SW7       29.90S
$$

TXZ229>234-239>247-291600-
TEXAS COASTAL BEND AND RIO GRANDE PLAINS

CITY           SKY/WX    TMP DP  RH WIND       PRES   REMARKS
VICTORIA       PTSUNNY   86  77  74 SW12G20   29.89S HX  97
*BEEVILLE      MOSUNNY   87  78  76 S17       29.89S HX  99
ROCKPORT       PTSUNNY   85  77  77 S7        29.89R HX  95
*PORT ARANSAS  SUNNY     86  76  72 S16G22    29.89S HX  96
*PORT LAVACA   PTSUNNY   83  80  90 CALM      29.89F HX  96
*INGLESIDE     SUNNY     89  77  68 MISG      29.89R HX 100
CORPUS CHRISTI MOSUNNY   86  77  74 S15       29.88S HX  97
CORPUS NAS     MOSUNNY   90  78  68 S18G24    29.89R HX 104
*ROBSTOWN      MOSUNNY   87  76  71 S16       29.89S HX  97
ALICE          MOSUNNY   86  75  69 S12       29.88R HX  95
KINGSVILLE NAS MOSUNNY   88  78  72 S16       29.88R HX 101
COTULLA        MOSUNNY   83  74  74 SE12      29.88R
*FAITH RANCH   SUNNY     86  73  66 SE12      29.87R HX  93
LAREDO         MOSUNNY   85  75  72 S13       29.88R HX  93
$$

TXZ248>255-291600-
DEEP SOUTH TEXAS

CITY           SKY/WX    TMP DP  RH WIND       PRES   REMARKS
BROWNSVILLE    MOSUNNY   85  78  80 S15       29.89R HX  96
PORT ISABEL    SUNNY     90  78  68 S15G25    29.87S HX 104
*SOUTH PADRE   NOT AVBL
HARLINGEN      MOSUNNY   88  79  74 S18       29.87R HX 103
*HEBBRONVILLE  PTSUNNY   81  74  78 SW12      29.90R
MCALLEN        MOSUNNY   89  75  63 S20G29    29.87S HX  99
*WESLACO       MOSUNNY   86  74  68 S16G23    29.87R HX  94
FALFURRIAS     MOSUNNY   87  74  65 S15G24    29.88R HX  96
EDINBURG       MOSUNNY   91  73  56 S20       29.88R HX  99
*ZAPATA        MOSUNNY   84  73  69 SE9       29.86R HX  91
$$

TXZ213>215-236>238-242>244-246-247-251-254-255-291600-
CMAN STATIONS

STATION/POSITION TIME  TEMP    WIND        PRES    WAVE
                       AIR SEA DIR/SP/G            HT/PER
                 (UTC) (F)     (DEG/KT/KT) (MB)    (FT/S)
SABINE PASS      1424   80 84  180/  8/ 12 1014.7
SEA RIM ST PARK  1400   81     200/ 13/ 16 1013.5
NORTH JETTY/GLS  1430      84  210/ 17/ 21 1012.7
EAGLE POINT      1430   78 83  240/  9/ 13 1012.9
MORGANS POINT    1430   80 84  240/  6/ 10 1012.4
MISSION/ARANSAS  1400          190/  7       N/A
PORT O`CONNOR    1430   81     180/  5/  7 1011.8
PORT ARANSAS     1400   84 84  170/ 17/ 19 1011.8
MALAQUITE BEACH  1430   85 85  170/ 19/ 22 1011.2
PORT ISABEL      1430   85 85              1011.9
$$



USA.gov is the U.S. government's official web portal to all federal, state and local government web resources and services.